Regional Weather Roundup
Issued by NWS Albany, NY

Home | Current Version | Previous Version | Text Only | Print | Product List | Glossary On
Versions: 1 2 3 4 5 6 7 8 9 10 11 12 13 14 15 16 17 18 19 20 21 22 23 24 25 26 27
000
ASUS41 KALY 040810
RWRALY

NEW YORK STATE HOURLY WEATHER ROUNDUP
NATIONAL WEATHER SERVICE ALBANY NY
400 AM EDT WED MAY 04 2016

NOTE: "FAIR" INDICATES FEW OR NO CLOUDS BELOW 12,000 FEET WITH NO
SIGNIFICANT WEATHER AND/OR NO OBSTRUCTIONS TO VISIBILITY.

NYZ032-033-038>043-046>054-057>066-NYZ062>081-082-084-040900-
EAST


CITY           SKY/WX    TMP DP  RH WIND       PRES   REMARKS
ALBANY         DRZL/FOG  49  47  93 CALM      29.82R VSB 1
GLENS FALLS    CLOUDY    48  41  76 CALM      29.80F
POUGHKEEPSIE   CLOUDY    52  49  89 SE5       29.80S FOG
NEWBURGH       CLOUDY    50  50 100 SE6       29.80F FOG
MONTGOMERY     CLOUDY    50  49  96 S3        29.79F FOG
WHITE PLAINS   CLOUDY    48  46  93 E5        29.80S FOG
NEW YORK CITY  CLOUDY    51  49  92 E5        29.80F
CENTRAL PARK   CLOUDY    50  47  89 CALM      29.83S
$$

NYZ005>009-017-018-044>046-055-056-040900-
CENTRAL


CITY           SKY/WX    TMP DP  RH WIND       PRES   REMARKS
FULTON         CLOUDY    49  44  83 CALM      29.76F
SYRACUSE       CLOUDY    47  41  80 NE3       29.75F
ROME           CLOUDY    49  45  86 SE6       29.78F
ELMIRA         PTCLDY    44  40  85 CALM      29.76S
BINGHAMTON     CLOUDY    46  45  96 CALM      29.75F
MONTICELLO     CLOUDY    46  46 100 CALM      29.79F VSB 3/4
$$

NYZ026>034-041>043-087-040900-
NORTH


CITY           SKY/WX    TMP DP  RH WIND       PRES   REMARKS
WATERTOWN      CLOUDY    48  42  80 CALM      29.76F
FORT DRUM      NOT AVBL
MASSENA        CLOUDY    45  38  76 E9        29.80S
SARANAC LAKE   LGT RAIN  39  37  92 CALM      29.76S
PLATTSBURGH    CLOUDY    39  36  89 CALM      29.81
$$

NYZ001>004-010>016-019>021-085-040900-
WEST


CITY           SKY/WX    TMP DP  RH WIND       PRES   REMARKS
NIAGARA FALLS  PTCLDY    45  39  79 S3        29.74F
BUFFALO        PTCLDY    43  38  82 S3        29.74F
DUNKIRK        CLEAR     36  34  92 CALM      29.74F
JAMESTOWN      CLEAR     41  37  87 S3        29.74S
WELLSVILLE     CLOUDY    44  42  93 CALM      29.75F
ROCHESTER      PTCLDY    43  40  89 CALM      29.75F
PENN YAN       CLOUDY    46  43  89 S3        29.75F
$$

             KEY
       WCI = WIND CHILL INDEX
       VSB = VISIBILITY
       HX  = HEAT INDEX
$$




USA.gov is the U.S. government's official web portal to all federal, state and local government web resources and services.